Weather in Karasu

Turkey     41°06′12″N   30°41′47″E
temp.,
°C
wind,
m/s
gust,
m/s
humid.,
%
clouds,
%
prec.,
mm/h
press.,
hPa
HPBL,
m
12 april, mon
mon1200:00+4ssw2396100 1.4 1025391
03:00+3ssw3496100 4.7 1025504
06:00+3s3597100 1.8 1024276
09:00+4ssw3496100 5.1 1025279
12:00+5ssw3495100 1.6 1025375
15:00+6ssw2293100 3.3 1025429
18:00+5s349499 1.0 1024268
21:00+4sse349471 1.0 102482
13 april, tue
tue1300:00+5sse228791 0.0 102332
03:00+5sse228240 0.0 102226
06:00+4sse228164 0.0 102219
09:00+9sse11705 0.0 1021195
12:00+13wnw126070 0.0 1020796
15:00+14nne23632 0.0 1019754
18:00+12ene33766 0.0 1017147
21:00+9ese2283100 0.0 101720
14 april, wed
wed1400:00+9s2281100 0.0 101616
03:00+11se2273100 0.0 101519
06:00+10se3479100 0.3 101567
09:00+13s127887 0.3 1015143
12:00+18ssw13600 0.0 10141044
15:00+17nne3366100 0.4 1013510
18:00+14ne2380100 0.6 1013152
21:00+11sse227820 0.6 101417
15 april, thu
thu1500:00+11sw228671 0.3 101516
03:00+10w349280 0.3 1016174
06:00+8nw2294100 0.1 1018268
09:00+8ne2294100 0.2 1019253
12:00+11ne328398 0.0 1018606
15:00+10ne5584100 0.0 1017422
18:00+9ne568398 0.0 1016388
21:00+6ne359394 0.0 1017226
16 april, fri
fri1600:00+7ene249298 0.0 1017215
03:00+7ne2493100 0.3 1017259
06:00+7nne2495100 0.0 1017330
09:00+7nne3395100 0.1 1019346
12:00+8nne2291100 0.1 1020395
15:00+10ne328379 0.1 1019554
18:00+9ne3384100 0.0 1019326
21:00+7ene2393100 0.0 102096